Torna al catalogo

M-5 R/B(2)

LostHEO
NORAD 25388·ROCKET BODY·🇯🇵 Japan

Lanciato Jul 3, 1998 da Uchinoura Space Center

Loading…

Prossimi Passaggi (prossime 24 ore)

TLE

ObsoletoSource: Space-Track

Epoca: Jul 22, 1998, 13:07 UTC

1 25388U 98041C   98203.54668980  .00018647  00000-0  10000-3 0  9996
2 25388  23.8800 241.2790 9726635 156.0980 359.9999  0.05194046    14

Traccia M-5 R/B(2) in tempo reale con AllMySat

Download on the App Store